www.pogodaiklimat.ru

Погода и климат >> Архив погоды >> Россия >> Саратовская область >> Саратов ЮВ


ПОГОДА в Саратове ЮВ

  • Прогноз погоды в Саратове ЮВ
  • Монитор погоды в Саратове ЮВ

АРХИВ ПОГОДЫ в Саратове ЮВ

Время (UTC), дата Ветер
(напр.,м/с)
 
Видим.   Явления Облачность Т
(С)
Тd
(С)
f
(%)
Тe
(С)
Тes
(С)
Комфортность P
(гПа)
Po
(гПа)
Тmin
(С)
Tmax
(С)
R
(мм)
R24
(мм)
S
(см)
18 14.09 ЮЗ 4 10 км 9/0
[Ac trans]
+22.0 +3.3 29 +22 +22 комфорт 1013.6 998.6
21 14.09 С 5
{11}
10 км 9/0
[Ac trans]
+16.9 +10.2 65 +16 +16 1015.1 999.8
00 15.09 СЗ 3 10 км 9/0
[Ac As]
+14.4 +9.7 73 +14 +14 1015.3 999.9
03 15.09 З 2 10 км слаб. дождь 10/10 480 м
[Sc]
+12.5 +11.2 92 +12 +12 1016.1 1000.7 +12.5 0.3
06 15.09 З 4 10 км {ливн. осадки} 8/6 500 м
[Cb cap Ac trans]
+13.7 +10.2 79 +12 +13 1016.7 1001.3 +11.8
09 15.09 З 3 10 км 6/4 1000 м
[Cu med, cong Ci fib]
+18.3 +4.4 40 +19 +23 1015.6 1000.4
12 15.09 СЗ 4 10 км 6/3 1000 м
[Cu med, cong Ac trans Ci fib]
+18.5 +2.4 34 +19 +20 1015.1 999.9
15 15.09 З 3
{12}
10 км 4/3 1000 м
[Cu med, cong Ac trans]
+13.5 +3.7 51 +13 +13 1015.8 1000.4 +19.4 0.8
18 15.09 З 4 10 км ясно +12.5 +3.4 54 +11 +11 1016.1 1000.6
21 15.09 З 3 10 км 3/0
[Ci fib]
+11.3 +4.3 62 +10 +10 1015.6 1000.1
00 16.09 ЮЗ 3 10 км 3/0
[Ci fib]
+11.3 +2.2 53 +10 +10 1014.7 999.2
03 16.09 ЮЗ 4 10 км 10/0
[Ac und]
+13.3 +2.7 49 +12 +12 1013.1 997.6 +10.8
06 16.09 ЮЗ 5
{11}
10 км 10/6 450 м
[Sc Ac trans]
+14.9 +3.0 45 +14 +14 1011.1 995.8
09 16.09 ЮЗ 5
{14}
10 км 8/0
[Ac trans]
+19.3 +2.8 33 +19 +22 1008.3 993.2
12 16.09 ЮЗ 6-14
{14}
10 км 8/0
[Ac trans Ci fib]
+21.8 +1.8 27 +22 +23 комфорт 1005.4 990.6
15 16.09 ЮЗ 3
{14}
10 км 10/4 300 м
[Sc Ac trans]
+21.0 +1.6 28 +22 +22 комфорт 1004.3 989.4 +22.4
18 16.09 З 2 10 км 8/0
[Ac trans]
+18.2 +3.7 38 +19 +19 1005.3 990.3
21 16.09 З 2 10 км 8/0
[Ac trans]
+16.6 +6.1 50 +17 +17 1005.1 990.0
00 17.09 З 3 10 км 8/0
[Ac trans]
+15.0 +6.8 58 +14 +14 1005.4 990.2
03 17.09 ЮЗ 1 10 км 8/0
[Ac trans]
+14.0 +6.8 62 +14 +14 1004.8 989.6 +14.0
06 17.09 ЮЗ 2 10 км 9/8 480 м
[Sc diur, vesp Ac trans]
+17.5 +6.9 50 +18 +19 1004.5 989.4 +14.0
09 17.09 ЮЗ 4 10 км 8/5 1000 м
[Sc diur, vesp Ac trans]
+19.5 +6.2 42 +20 +22 1003.4 988.5
12 17.09 ЮЗ 4 10 км 10/4 1000 м
[Cu hum Ac trans Ci fib]
+21.7 +4.2 32 +22 +23 комфорт 1001.9 987.1
15 17.09 ЮЗ 1 10 км 10/8 480 м
[Sc diur, vesp Ac As]
+19.4 +5.2 39 +21 +21 комфорт 1001.2 986.2 +21.8
18 17.09 ЮЗ 2 10 км 10/0
[Ac As]
+17.0 +8.6 58 +17 +17 1001.9 986.9
21 17.09 З 3 10 км 3/0
[Ac trans]
+15.1 +3.9 47 +15 +15 1002.8 987.6
00 18.09 З 2 10 км ясно +12.4 +2.9 52 +12 +12 1003.7 988.4
03 18.09 З 2 10 км ясно +11.1 +2.8 57 +10 +10 1004.9 989.5 +10.3
06 18.09 З 3 10 км 5/0
[Ac trans Ci fib]
+16.2 +2.6 40 +16 +19 1005.0 989.8
09 18.09 ЮЗ 4 10 км 9/5 1000 м
[Cu hum Ci fib]
+19.4 +2.8 33 +20 +22 1003.7 988.7
12 18.09 З 3
{11}
10 км 10/5 1000 м
[Cb cap Ac trans]
+18.1 +4.1 39 +18 +19 1002.2 987.2
15 18.09 З 3 10 км 10/10 500 м
[Cb cap Ac As]
+15.0 +7.4 60 +14 +14 1001.0 985.9 +19.7
18 18.09 Ю 2 10 км 10/0
[Ac und]
+13.0 +9.9 81 +12 +12 997.2 982.0
21 18.09 З 4-10
{10}
10 км в посл. час ливневой дождь 10/5 1000 м
[Cb cap Ac As]
+10.1 +6.3 77 +8 +8 997.1 981.8
00 19.09 З 4-11
{13}
10 км {ливн. осадки} ясно +8.6 +5.0 78 +6 +6 998.4 983.0
03 19.09 ЮЗ 6-11
{13}
10 км 9/5 600 м
[Sc Ac As]
+8.1 +4.3 77 +4 +4 999.4 983.9 +8.0 2
06 19.09 З 7-13
{15}
10 км 6/3 600 м
[Sc Ac trans Ci fib]
+10.1 +6.7 79 +6 +7 1003.8 988.4 +7.7
09 19.09 З 5-11
{16}
10 км 8/6 900 м
[Cb cap Ac trans]
+12.7 +6.6 66 +11 +12 1008.7 993.4
12 19.09 З 4
{11}
10 км 8/5 600 м
[Cb cap Ac trans]
+14.0 +5.5 57 +13 +14 1011.1 995.8
15 19.09 З 2
{11}
10 км 8/5 600 м
[Cb cap Ac trans]
+12.8 +4.4 57 +12 +12 1012.8 997.4 +15.3
18 19.09 З 2 10 км 4/0
[Ac trans]
+10.7 +4.8 67 +10 +10 1014.6 999.0
21 19.09 З 4 10 км 9/0
[Ac trans]
+10.3 +5.3 71 +8 +8 1014.6 999.0
00 20.09 З 4
{10}
10 км 9/0
[Ac trans]
+9.6 +5.1 74 +7 +7 1015.0 999.4
03 20.09 ЮЗ 2 10 км 8/0
[Ac trans]
+8.6 +5.1 79 +7 +7 1015.3 999.6 +8.6
06 20.09 З 2 10 км 6/0
[Ac trans]
+12.3 +5.2 62 +12 +14 1015.8 1000.3 +8.5
09 20.09 ЮЗ 3 10 км 8/8 1000 м
[Cu med, cong Ac trans]
+15.3 +3.9 46 +15 +16 1014.7 999.4
12 20.09 З 3 10 км 8/6 1000 м
[Cu med, cong Ac trans Ci fib]
+15.9 +2.4 40 +16 +17 1013.8 998.5
15 20.09 ЮЗ 1 10 км 8/0
[Ac trans]
+12.0 +3.6 56 +12 +12 1013.6 998.1 +16.3
18 20.09 Ю 1 10 км 6/0
[Ac trans]
+10.0 +4.4 68 +10 +10 1013.8 998.2
21 20.09 З 1 10 км 8/0
[Ac trans]
+10.4 +4.0 65 +10 +10 1012.9 997.3
00 21.09 СЗ 1 10 км 8/0
[Ac trans]
+7.5 +4.5 81 +7 +7 1012.3 996.6
03 21.09 С 1 10 км 6/0
[Ac trans]
+5.7 +4.4 91 +4 +4 1011.9 996.1 +5.7
06 21.09 СЗ 4 10 км 1/0
[Ac trans]
+11.1 +4.7 65 +9 +12 1011.4 995.9
09 21.09 СЗ 3 10 км 8/5 600 м
[Cb cap Ac trans]
+13.1 +2.8 50 +12 +14 1010.1 994.7
12 21.09 СЗ 6-10
{10}
10 км 8/4 600 м
[Cb calv Ac trans]
+14.0 +2.1 44 +12 +13 1009.6 994.3

 

Местоположение метеостанции Саратов ЮВ (Саратовская область, Россия): широта 51.57 долгота 46.00 высота над уровнем моря 129 м.

В архиве по умолчанию представлена погода в Саратове ЮВ за последнюю неделю. Архивные данные за месяц целиком и за предыдущие месяцы, начиная с января 2011 года, Вы можете получить, выбрав интересующий диапазон дат из раскрывающегося списка и нажав кнопку "Ввод!".


*Определитесь, кто Вы:
робот инопланетянин человек

Внимание! Время в таблицах - всемирное. Для получения местного времени необходимо прибавить поправку, которая равна 4 ч.

Смотрите также архив погоды в соседних городах и на ближайших метеорологических станциях:

Погода в Саратове (Саратовская область, Россия) (2 км)
Погода в Октябрьском Городке (Саратовская область, Россия) (39 км)
Погода в Маркс (Саратовская область, Россия) (52 км)
Погода в Сплавнухе (Саратовская область, Россия) (70 км)
Погода в Аткарске (Саратовская область, Россия) (75 км)
Погода в Карабулаке (Саратовская область, Россия) (88 км)
Погода в Петровске (Саратовская область, Россия) (89 км)
Погода в Красном Куте (Саратовская область, Россия) (97 км)
Погода в Калининске (Саратовская область, Россия) (104 км)
Погода в Рудне (Волгоградская область, Россия) (129 км)

Пояснения к столбцам:

Ветер - указаны скорость ветра в м/с - средняя за 10 мин, порывы в срок и между сроками (в фигурных скобках) и направление, откуда дует ветер: С - северный, СВ - северо-восточный, В - восточный, ЮВ - юго-восточный, Ю - южный, ЮЗ - юго-западный, З - западный, СЗ - северо-западный.
Видимость - горизонтальная дальность видимости в метрах или километрах. При видимости от 1 до 10 км при отсутствии осадков обычно наблюдается дымка, при ухудшении видимости до 1 км и менее - туман. В сухую погоду видимость может ухудшаться дымом, пылью или мглою.
Явления - указаны атмосферные явления, наблюдавшиеся в срок или в последний час перед сроком; фигурными скобками обозначены явления, наблюдавшиеся между сроками (за 1-3 часа до срока); квадратными скобками обозначены град или гололедные отложения с указанием их диаметра в мм.
Облачность - указаны через наклонную черту общая и нижняя облачность в баллах и высота нижней границы облаков в метрах; квадратными скобками обозначены формы облаков: Ci - перистые, Cs - перисто-слоистые, Cc - перисто-кучевые, Ac - высококучевые, As - высокослоистые, Sc - слоисто-кучевые, Ns - слоисто-дождевые, Cu - кучевые, Cb - кучево-дождевые. Подробнее классификацию облаков см. в Атласе облаков (PDF).
T - Температура воздуха - температура, измеренная на высоте 2 м над землей.
Td - Температура точки росы - температура, при понижении до которой содержащийся в воздухе водяной пар достигнет насыщения.
f - Относительная влажность воздуха - влажноcть воздуха, измеренная на высоте 2 м над землей.
Te - Эффективная температура - температура, которую ощущает одетый по сезону человек в тени. Характеристика душности погоды. При расчете учитывается влияние влажности воздуха и скорости ветра на теплоощущения человека.
Tes - Эффективная температура на солнце - температура, которую ощущает человек, с поправкой на солнечный нагрев. Характеристика знойности погоды. Зависит от высоты солнца над горизонтом, облачности и скорости ветра. Ночью, в пасмурную погоду, а также при ветре 12 м/с и более поправка равна нулю.
P - Атмосферное давление - приведенное к уровню моря атмосферное давление.
Po - Атмосферное давление - измеренное на уровне метеостанции атмосферное давление.
Tmin - Минимальная температура - минимум температуры воздуха на высоте 2 м над землей.
Tmax - Максимальная температура - максимум температуры воздуха на высоте 2 м над землей.
R - Количество осадков - Количество выпавших осадков за период времени, мм. При наведении курсора мыши на число - период времени, за который выпало указанное количество осадков.
R24 - Количество осадков - Количество выпавших осадков за 24 часа, мм.
S - Снежный покров - Высота снежного покрова, см. При наведении курсора мыши на число - состояние снежного покрова и степень покрытия местности в баллах.